Regional Weather Roundup
Issued by NWS

Current Version | Previous Version | Text Only | Print | Product List | Glossary On
Versions: 1 2 3 4 5 6 7 8 9 10 11 12 13 14 15 16 17 18 19 20 21 22 23 24 25 26 27 28 29 30 31 32 33 34 35 36 37 38 39 40 41 42 43 44 45 46 47 48 49 50
011
ASHW40 PHFO 060912
RWRHI

WEATHER ROUNDUP FOR HAWAII
NATIONAL WEATHER SERVICE HONOLULU HI
1100 PM HST THU MAY 05 2016

THIS IS AN AUTOMATED REPORT THAT HAS NOT BEEN QUALITY CONTROLLED.

NOTE..."FAIR" INDICATES FEW OR NO CLOUDS BELOW 12,000 FEET WITH NO
SIGNIFICANT WEATHER AND/OR OBSTRUCTIONS TO VISIBILITY.

* - THESE SITES REPORT LIMITED FIELDS

HIZ001>004-061000-
KAUAI-NIIHAU-

CITY           SKY/WX    TMP DP  RH WIND       PRES   REMARKS
LIHUE APT      CLEAR     74  69  85 W5        30.08S
PORT ALLEN*      N/A     72 N/A N/A NE7         N/A
POIPU*           N/A     72 N/A N/A NW1         N/A
PRINCEVILLE*     N/A     72 N/A N/A S2          N/A
KOKOLE POINT*  NOT AVBL
MOLOAA DAIRY*    N/A     72  68  88 CALM        N/A
WAIMEA HTS*    NOT AVBL
PUU OPAE*      NOT AVBL
PUU LUA*       NOT AVBL
MAKAHA RIDGE*  NOT AVBL
$$

HIZ005>011-061000-
OAHU-

CITY           SKY/WX    TMP DP  RH WIND       PRES   REMARKS
HONOLULU       MOCLDY    75  67  76 N8        30.07S
KALAELOA       CLOUDY    74  68  81 NE5       30.09R
KANEOHE MCB    CLOUDY    73  69  87 NW9       30.05S
WHEELER FIELD  MOCLDY    69  68  98 E2        30.08S
BELLOWS*       NOT AVBL
KAHUKU*        NOT AVBL
WHEELER*       NOT AVBL
WAIANAE HARBOR NOT AVBL
DILLINGHAM*      N/A     90  82  79 MISG        N/A  HX 111
KAHUKU TRN*      N/A     84  81  89 CALM        N/A  HX  98
KAWAILOA*        N/A     70  64  83 SE6         N/A
KII*             N/A     73  70  88 E7          N/A
MAKUA RANGE*     N/A     72  66  83 SE3G9       N/A
OAHU FOREST NW NOT AVBL
SCHOFIELD BRK*   N/A     70  68  94 MISG        N/A
SCHOFIELD S*   NOT AVBL
WAIANAE VLY*   NOT AVBL
KUAOKALA*      NOT AVBL
HONOULIUULI*   NOT AVBL
MOKUOLOE IS*   NOT AVBL
PALEHUA*       NOT AVBL
WAIAWA PHB*    NOT AVBL
$$

HIZ012>013-061000-
MOLOKAI-

CITY           SKY/WX    TMP DP  RH WIND       PRES   REMARKS
MOLOKAI AIRPT  CLEAR     67  64  90 CALM      30.08F
KALAUPAPA      NOT AVBL
MAKAPULAPAI*   NOT AVBL
MOLOKAI 1*     NOT AVBL
PUU ALII*      NOT AVBL
$$

HIZ016-061000-
KAHOOLAWE-

CITY           SKY/WX    TMP DP  RH WIND       PRES   REMARKS
KAHOOLAWE*     NOT AVBL
HAKIOAWA*      NOT AVBL
HONOKANAIA*      N/A     77  69  77 W12G17    30.01R
KANELOA*         N/A     75  70  83 NW9G16    30.14R
KEALIALALO*    NOT AVBL
LUA MAKIKA*    NOT AVBL
$$

HIZ014>015-061000-
LANAI-

CITY           SKY/WX    TMP DP  RH WIND       PRES   REMARKS
LANAI CITY     FAIR      69  67  93 NW9       30.12F
LANAI 1*       NOT AVBL
$$

HIZ017>028-061000-
MAUI-

CITY           SKY/WX    TMP DP  RH WIND       PRES   REMARKS
KAHULUI        MOCLDY    76  69  79 N5        30.06S
KAPALUA-W MAUI NOT AVBL
HANA AIRPORT   NOT AVBL
HANA*            N/A     75 N/A N/A SE8G15      N/A
HALEAKALA SUMM   N/A     45   9  23 SE12        N/A
MAALAEA BAY*   NOT AVBL
HALEAKALA*     NOT AVBL
KAUPO GAP*     NOT AVBL
KULA 1*          N/A     50  48  94 E3          N/A
$$

HIZ023>026-061000-
BIG ISLAND OF HAWAII COAST AND LOWER SLOPES-

CITY           SKY/WX    TMP DP  RH WIND       PRES   REMARKS
KAILUA KONA    CLOUDY    78  68  71 E6        30.06R
HILO           CLOUDY    73  67  81 SW6       30.11R
HONOKAA*         N/A     68 N/A N/A VRB1        N/A
KAWAIHAE MWT*    N/A     81 N/A N/A S3          N/A
KAWAIHAE*      NOT AVBL
SOUTH POINT*     N/A     68 N/A N/A N13G18      N/A
UPOLU AIRPORT*   N/A    N/A N/A N/A S5          N/A
KAMUELA*       CLOUDY    64  63  94 CALM      30.18S
HAKALAU*         N/A     52  48  87 S7G16       N/A
KALOKO-HONOKO* NOT AVBL
PALI 2*          N/A     63  59  88 SW5G12      N/A
KEALAKOMO*       N/A     73  66  78 VRB5        N/A
KAUPULEHU*     NOT AVBL
KAPAPALA*        N/A     67  61  80 N6          N/A
LOWER KAHUKU*  NOT AVBL
PUHE CS*       NOT AVBL
PUHO CS*       NOT AVBL
PTA KEAMUKU*     N/A    N/A N/A N/A CALM        N/A
WAIKOLOA*      NOT AVBL
$$

HIZ027>028-061000-
BIG ISLAND OF HAWAII INTERIOR AND SUMMMITS-

CITY           SKY/WX    TMP DP  RH WIND       PRES   REMARKS
BRADSHAW FIELD CLOUDY    52  45  77 SE2       30.38S
MK VISITOR CEN   N/A     50   9  18 E3          N/A
MAUNA KEA*       N/A     37  14  38 N2          N/A
MAUNA LOA*     NOT AVBL
MAUNA LOA 1*   NOT AVBL
PTA KIPUKA*      N/A     55  50  82 NE3G12      N/A
PTA RANGE 17*    N/A     55  52  88 S1          N/A
PTA WEST*        N/A     68  66  94 N3          N/A
NENE CABIN*    NOT AVBL
AHUMOA*        NOT AVBL
PTA PORTABLE*  NOT AVBL
PUU MALI*        N/A     50  48  93 S6G12       N/A
$$

HIC003-061000-
NORTHWEST ISLANDS-

CITY           SKY/WX    TMP DP  RH WIND       PRES   REMARKS
MIDWAY ISLAND  MOCLDY    63  46  55 NE16G24   30.33R
MIDWAY NOS*    NOT AVBL
FRENCH FRIGATE NOT AVBL
$$

PHZ110>124-180-061000-
BUOY REPORTS

STATION/POSITION TIME  TEMP    WIND        PRES    WAVE   SWELL
                       AIR SEA DIR/SP/G            HT/PER HT/DIR
                 (UTC) (F)     (DEG/KT/KT) (MB)    (FT/S) (FT/D)
BUOY 51001       0800   78 80   30/  8/ 12 1017.4R
BUOY 51101       0850   76 76  190/ 12/ 14 1017.0R   6/12   5/280
BUOY 51100       NOT AVBL
BUOY 51002       0850   78 78  100/ 16/ 17 1017.2    6/15   5/280
BUOY 51003       0850   77 78   40/ 10/ 10 1017.6R   6/14   5/280
BUOY 51004       0850   78 79   80/ 19/ 21 1018.1R   9/ 9   5/ 50
BARBERS PT BUOY  NOT AVBL
WAIMEA BAY BUOY  0804      78                N/A     5/13   3/320
KAILUA BAY BUOY  0811      78                N/A     5/ 8   2/350
LANAI BUOY       0815      79                N/A     3/14   2/260
BARBERS PT 2     0803      79                N/A     4/13   3/270
PAUWELA MAUI     0809      77                N/A     6/ 9   3/320
HILO             0812      77                N/A     8/10   3/ 70
KANEOHE BAY BUOY 0806      78                N/A     4/13   2/340
HANALEI KAUAI    NOT AVBL
KAHULUI HARBOR   0800   77 78  320/  6/  7 1017.8R
HONOLULU HARBOR  0800   77 78  250/  2/  3 1018.9R
KILO NALU        NOT AVBL
HILO HARBOR      0800   73 76  200/  5/  7 1018.9R
MOKUOLOE         0800   73 79  330/  8/  9 1018.5R
NAWILIWILI       0800   73 81  240/  3/  5 1018.1R
WHOTS BUOY       NOT AVBL
BUOY 51028       NOT AVBL
$$

......................KEY........................................
  SKY/WX - SKY CONDITIONS/PRESENT WEATHER
  TMP    - TEMPERATURE IN FAHRENHEIT
  DWPT   - DEWPOINT IN FAHRENHEIT
  RH     - RELATIVE HUMIDITY IN PERCENT
  WIND   - DIRECTION AND SPEED /MPH FOR ISLANDS...KTS FOR BUOYS/
  PRES   - MEAN SEA LEVEL PRESSURE IN INCHES OF HG
  VSB    - VISIBILITY IN MILES
  HX     - HEAT INDEX
  WCI    - WIND CHILL INDEX
  VRB    - VARIABLE WIND DIRECTION
  N/A    - NOT AVAILABLE




USA.gov is the U.S. government's official web portal to all federal, state and local government web resources and services.